QPF
0.02 0.02 0.03 0.03 0.02 0.03 0.03 0.02 0.02 0.02 0.02 0.02 0.02 0.03 0.04 0.06 0.06 0.05 0.05 0.05 0.04 0.04 0.04 0.03 0.03 0.04 0.04 0.04 0.03 0.04 0.05 0.05 0.02 0.01 0.01 0.01 0.01 0.01 0.01 0.04 0.05 0.04 0.03
0.03 0.04 0.04 0.06 0.07 0.06 0.04 0.04 0.03 0.03 0.03 0.03 0.04 0.05 0.05 0.06 0.06 0.06 0.05 0.04 0.03 0.02 0.02 0.02 0.02 0.03 0.02 0.03 0.03 0.02 0.04 0.05 0.03 0.01 0.01 0.01 0.01 0.01 0.01 0.03 0.05 0.04 0.03
0.04 0.04 0.04 0.05 0.07 0.08 0.07 0.06 0.05 0.05 0.05 0.04 0.04 0.04 0.06 0.07 0.07 0.06 0.05 0.03 0.03 0.03 0.02 0.02 0.03 0.03 0.02 0.02 0.02 0.03 0.03 0.03 0.03 0.02 0.02 0.02 0.01 0.02 0.02 0.02 0.02 0.03 0.03
0.03 0.04 0.05 0.06 0.05 0.05 0.06 0.07 0.05 0.05 0.04 0.03 0.03 0.03 0.04 0.06 0.06 0.06 0.06 0.05 0.04 0.03 0.02 0.02 0.02 0.02 0.02 0.02 0.03 0.03 0.02 0.02 0.02 0.03 0.02 0.02 0.02 0.03 0.03 0.02 0.02 0.03 0.03
0.04 0.05 0.05 0.07 0.07 0.07 0.06 0.06 0.05 0.04 0.03 0.03 0.03 0.03 0.04 0.05 0.07 0.09 0.09 0.07 0.06 0.04 0.03 0.03 0.02 0.02 0.01 0.01 0.01 0.01 0.01 0.01 0.02 0.02 0.02 0.02 0.02 0.03 0.03 0.02 0.03 0.03 0.02
0.04 0.06 0.08 0.08 0.07 0.06 0.07 0.07 0.06 0.05 0.05 0.05 0.05 0.05 0.05 0.06 0.07 0.08 0.08 0.07 0.05 0.04 0.03 0.02 0.02 0.02 0.02 0.02 0.01 0.01 0.01 0.01 0.02 0.01 0.02 0.03 0.02 0.03 0.03 0.03 0.04 0.03 0.02
0.08 0.10 0.12 0.11 0.11 0.10 0.11 0.10 0.08 0.06 0.06 0.07 0.07 0.05 0.04 0.04 0.05 0.05 0.05 0.06 0.05 0.03 0.02 0.01 0.02 0.02 0.02 0.02 0.02 0.02 0.02 0.02 0.02 0.02 0.02 0.02 0.02 0.02 0.03 0.03 0.03 0.03 0.03
0.09 0.10 0.12 0.11 0.09 0.10 0.12 0.11 0.09 0.09 0.08 0.08 0.07 0.06 0.05 0.05 0.06 0.06 0.07 0.07 0.06 0.05 0.03 0.02 0.02 0.02 0.02 0.02 0.02 0.02 0.02 0.02 0.02 0.02 0.02 0.02 0.02 0.03 0.03 0.03 0.03 0.03 0.02
0.08 0.09 0.09 0.12 0.13 0.10 0.09 0.09 0.10 0.11 0.11 0.10 0.09 0.09 0.08 0.08 0.10 0.10 0.10 0.07 0.05 0.05 0.05 0.03 0.03 0.02 0.02 0.02 0.02 0.02 0.02 0.02 0.01 0.01 0.01 0.02 0.02 0.03 0.03 0.02 0.03 0.02 0.01
0.08 0.10 0.09 0.10 0.13 0.14 0.12 0.11 0.12 0.11 0.12 0.13 0.14 0.12 0.11 0.10 0.09 0.07 0.07 0.06 0.05 0.06 0.06 0.05 0.03 0.02 0.02 0.03 0.03 0.03 0.03 0.02 0.01 0.01 0.01 0.01 0.01 0.01 0.01 0.01 0.02 0.03 0.03
0.06 0.07 0.07 0.07 0.09 0.13 0.12 0.10 0.10 0.10 0.11 0.10 0.09 0.07 0.06 0.06 0.06 0.06 0.06 0.05 0.05 0.06 0.06 0.06 0.06 0.06 0.05 0.04 0.04 0.03 0.02 0.01 0.01 0.01 0.01 0.01 0.00 0.00 0.00 0.00 0.01 0.01 0.03
0.05 0.05 0.05 0.05 0.05 0.06 0.07 0.07 0.08 0.09 0.11 0.09 0.08 0.07 0.07 0.07 0.06 0.06 0.06 0.05 0.05 0.05 0.06 0.07 0.07 0.06 0.04 0.03 0.02 0.01 0.01 0.01 0.01 0.01 0.01 0.00 0.00 0.00 0.00 0.00 0.01 0.01 0.02
0.05 0.06 0.05 0.04 0.04 0.05 0.07 0.06 0.08 0.08 0.09 0.09 0.07 0.08 0.10 0.12 0.13 0.11 0.08 0.06 0.05 0.05 0.04 0.04 0.05 0.05 0.04 0.02 0.02 0.01 0.02 0.01 0.01 0.01 0.01 0.01 0.00 0.00 0.00 0.00 0.01 0.01 0.02
0.04 0.05 0.05 0.04 0.03 0.04 0.05 0.04 0.04 0.05 0.05 0.06 0.05 0.05 0.05 0.06 0.08 0.10 0.10 0.08 0.06 0.06 0.05 0.06 0.06 0.05 0.04 0.02 0.02 0.02 0.01 0.01 0.01 0.01 0.01 0.01 0.01 0.01 0.01 0.01 0.01 0.01 0.01
0.03 0.03 0.03 0.03 0.03 0.04 0.04 0.03 0.03 0.03 0.04 0.05 0.05 0.05 0.05 0.06 0.07 0.09 0.08 0.08 0.07 0.06 0.06 0.05 0.05 0.04 0.04 0.03 0.03 0.02 0.02 0.01 0.01 0.01 0.01 0.02 0.02 0.02 0.02 0.02 0.02 0.02 0.02
0.04 0.02 0.02 0.02 0.03 0.03 0.03 0.02 0.02 0.03 0.03 0.04 0.04 0.04 0.05 0.06 0.07 0.10 0.11 0.09 0.08 0.08 0.07 0.06 0.04 0.03 0.02 0.02 0.02 0.02 0.02 0.01 0.01 0.01 0.01 0.02 0.03 0.03 0.04 0.03 0.04 0.04 0.03
0.05 0.03 0.03 0.03 0.03 0.02 0.02 0.02 0.02 0.02 0.02 0.05 0.05 0.06 0.05 0.05 0.07 0.09 0.11 0.10 0.10 0.11 0.10 0.10 0.08 0.04 0.03 0.03 0.02 0.02 0.02 0.01 0.01 0.01 0.01 0.02 0.03 0.03 0.03 0.03 0.04 0.04 0.02
0.06 0.06 0.05 0.04 0.04 0.04 0.04 0.03 0.02 0.02 0.02 0.03 0.05 0.06 0.06 0.04 0.04 0.06 0.08 0.07 0.07 0.07 0.07 0.09 0.10 0.08 0.06 0.05 0.03 0.03 0.02 0.02 0.02 0.02 0.02 0.02 0.04 0.04 0.03 0.03 0.03 0.02 0.02
0.07 0.07 0.08 0.08 0.07 0.07 0.06 0.04 0.03 0.02 0.02 0.01 0.02 0.05 0.06 0.05 0.04 0.04 0.04 0.04 0.04 0.04 0.04 0.03 0.03 0.03 0.03 0.03 0.03 0.03 0.02 0.02 0.02 0.01 0.01 0.02 0.04 0.04 0.04 0.04 0.04 0.03 0.02
0.09 0.10 0.10 0.09 0.07 0.05 0.04 0.03 0.02 0.02 0.01 0.01 0.03 0.05 0.05 0.04 0.03 0.04 0.04 0.03 0.03 0.04 0.04 0.03 0.03 0.03 0.03 0.02 0.02 0.02 0.02 0.02 0.02 0.01 0.02 0.02 0.02 0.02 0.03 0.03 0.04 0.04 0.03
0.07 0.10 0.11 0.07 0.06 0.05 0.04 0.03 0.03 0.03 0.02 0.03 0.04 0.05 0.04 0.03 0.04 0.03 0.02 0.02 0.02 0.02 0.02 0.02 0.02 0.02 0.02 0.02 0.03 0.03 0.02 0.02 0.02 0.02 0.02 0.02 0.03 0.03 0.03 0.03 0.05 0.05 0.04
0.07 0.07 0.06 0.06 0.06 0.06 0.05 0.04 0.04 0.05 0.05 0.06 0.06 0.06 0.05 0.04 0.05 0.04 0.03 0.02 0.02 0.01 0.01 0.02 0.02 0.02 0.01 0.02 0.03 0.03 0.03 0.02 0.02 0.02 0.02 0.02 0.03 0.03 0.04 0.03 0.04 0.04 0.03
0.05 0.04 0.04 0.05 0.06 0.07 0.07 0.05 0.05 0.04 0.04 0.06 0.06 0.05 0.04 0.03 0.03 0.04 0.03 0.03 0.03 0.03 0.03 0.04 0.03 0.02 0.02 0.02 0.03 0.04 0.05 0.04 0.03 0.02 0.02 0.02 0.02 0.03 0.03 0.04 0.04 0.04 0.03
0.03 0.03 0.03 0.03 0.04 0.06 0.07 0.06 0.06 0.05 0.03 0.03 0.04 0.04 0.03 0.03 0.02 0.03 0.02 0.02 0.01 0.01 0.02 0.02 0.02 0.01 0.01 0.02 0.03 0.03 0.05 0.07 0.05 0.03 0.03 0.03 0.03 0.03 0.03 0.03 0.03 0.04 0.03
0.03 0.03 0.02 0.02 0.02 0.03 0.05 0.06 0.05 0.04 0.03 0.02 0.02 0.02 0.02 0.02 0.02 0.02 0.02 0.02 0.02 0.02 0.02 0.03 0.02 0.02 0.02 0.02 0.02 0.03 0.04 0.06 0.06 0.04 0.03 0.03 0.03 0.03 0.03 0.03 0.03 0.03 0.03
0.02 0.03 0.03 0.02 0.02 0.03 0.05 0.05 0.04 0.03 0.03 0.02 0.02 0.02 0.02 0.02 0.02 0.02 0.02 0.02 0.02 0.02 0.02 0.02 0.02 0.02 0.03 0.03 0.03 0.03 0.03 0.04 0.05 0.06 0.04 0.03 0.03 0.03 0.03 0.03 0.03 0.03 0.02
MSLP
1013.86 1013.88 1013.95 1014.00 1014.00 1013.90 1013.69 1013.38 1013.00 1012.56 1012.12 1011.67 1011.24 1010.84 1010.45 1010.08 1009.73 1009.38 1009.07 1008.79 1008.56 1008.38 1008.26 1008.19 1008.16 1008.15 1008.14 1008.12 1008.09 1008.03 1007.95 1007.85 1007.74 1007.62 1007.49 1007.35 1007.20 1007.05 1006.89 1006.75 1006.63 1006.55 1006.53
1014.01 1014.01 1014.05 1014.09 1014.07 1013.98 1013.80 1013.54 1013.22 1012.85 1012.47 1012.09 1011.73 1011.37 1011.02 1010.68 1010.33 1009.97 1009.63 1009.29 1008.98 1008.71 1008.47 1008.29 1008.13 1008.02 1007.92 1007.84 1007.77 1007.71 1007.65 1007.59 1007.53 1007.45 1007.36 1007.24 1007.09 1006.90 1006.69 1006.47 1006.26 1006.07 1005.94
1014.21 1014.20 1014.21 1014.22 1014.18 1014.08 1013.91 1013.67 1013.39 1013.08 1012.77 1012.46 1012.16 1011.87 1011.58 1011.28 1010.96 1010.62 1010.27 1009.91 1009.55 1009.22 1008.91 1008.63 1008.39 1008.19 1008.03 1007.90 1007.81 1007.74 1007.69 1007.65 1007.62 1007.58 1007.51 1007.39 1007.23 1007.02 1006.75 1006.46 1006.15 1005.86 1005.61
1014.41 1014.40 1014.40 1014.37 1014.30 1014.17 1013.99 1013.76 1013.51 1013.24 1012.99 1012.75 1012.52 1012.30 1012.08 1011.83 1011.56 1011.26 1010.92 1010.57 1010.20 1009.84 1009.49 1009.17 1008.88 1008.63 1008.43 1008.27 1008.15 1008.06 1008.02 1007.99 1007.96 1007.93 1007.86 1007.75 1007.58 1007.34 1007.03 1006.68 1006.31 1005.93 1005.57
1014.59 1014.59 1014.57 1014.51 1014.40 1014.24 1014.03 1013.80 1013.56 1013.34 1013.13 1012.95 1012.80 1012.64 1012.49 1012.30 1012.08 1011.82 1011.52 1011.19 1010.84 1010.48 1010.13 1009.80 1009.50 1009.23 1009.01 1008.83 1008.69 1008.59 1008.52 1008.48 1008.45 1008.41 1008.33 1008.21 1008.03 1007.78 1007.46 1007.08 1006.66 1006.22 1005.80
1014.73 1014.74 1014.71 1014.61 1014.46 1014.26 1014.02 1013.79 1013.56 1013.37 1013.21 1013.08 1012.98 1012.89 1012.79 1012.66 1012.48 1012.26 1012.00 1011.71 1011.39 1011.06 1010.73 1010.42 1010.13 1009.87 1009.64 1009.45 1009.29 1009.17 1009.08 1009.01 1008.95 1008.89 1008.80 1008.67 1008.49 1008.24 1007.93 1007.55 1007.13 1006.67 1006.20
1014.82 1014.84 1014.78 1014.65 1014.46 1014.22 1013.97 1013.72 1013.51 1013.34 1013.22 1013.14 1013.09 1013.04 1012.98 1012.88 1012.74 1012.55 1012.32 1012.06 1011.78 1011.49 1011.20 1010.93 1010.67 1010.43 1010.21 1010.01 1009.84 1009.69 1009.56 1009.46 1009.36 1009.27 1009.17 1009.04 1008.87 1008.64 1008.36 1008.01 1007.61 1007.16 1006.68
1014.87 1014.88 1014.80 1014.63 1014.40 1014.14 1013.87 1013.63 1013.43 1013.29 1013.21 1013.16 1013.14 1013.11 1013.07 1012.98 1012.86 1012.68 1012.47 1012.23 1011.99 1011.73 1011.49 1011.26 1011.04 1010.83 1010.62 1010.43 1010.24 1010.07 1009.90 1009.76 1009.63 1009.51 1009.39 1009.26 1009.11 1008.91 1008.68 1008.38 1008.03 1007.61 1007.15
1014.88 1014.87 1014.76 1014.56 1014.31 1014.03 1013.76 1013.53 1013.35 1013.24 1013.18 1013.16 1013.15 1013.13 1013.08 1012.99 1012.85 1012.68 1012.47 1012.25 1012.02 1011.80 1011.60 1011.41 1011.22 1011.04 1010.86 1010.67 1010.47 1010.28 1010.08 1009.90 1009.74 1009.59 1009.46 1009.34 1009.21 1009.06 1008.86 1008.62 1008.32 1007.96 1007.53
1014.86 1014.82 1014.68 1014.46 1014.19 1013.91 1013.65 1013.44 1013.28 1013.20 1013.16 1013.15 1013.14 1013.11 1013.04 1012.93 1012.77 1012.58 1012.36 1012.14 1011.93 1011.74 1011.57 1011.42 1011.27 1011.12 1010.95 1010.77 1010.57 1010.36 1010.14 1009.93 1009.75 1009.58 1009.45 1009.33 1009.22 1009.09 1008.94 1008.75 1008.49 1008.17 1007.77
1014.80 1014.73 1014.57 1014.33 1014.06 1013.78 1013.54 1013.35 1013.23 1013.16 1013.14 1013.13 1013.11 1013.07 1012.97 1012.83 1012.65 1012.43 1012.21 1011.99 1011.79 1011.62 1011.48 1011.36 1011.24 1011.11 1010.97 1010.79 1010.59 1010.37 1010.15 1009.93 1009.73 1009.55 1009.41 1009.30 1009.19 1009.08 1008.95 1008.78 1008.55 1008.24 1007.86
1014.67 1014.58 1014.40 1014.16 1013.89 1013.64 1013.43 1013.27 1013.18 1013.13 1013.11 1013.10 1013.07 1013.00 1012.88 1012.72 1012.51 1012.28 1012.05 1011.84 1011.66 1011.52 1011.40 1011.31 1011.22 1011.11 1010.99 1010.82 1010.63 1010.41 1010.18 1009.96 1009.75 1009.57 1009.43 1009.31 1009.20 1009.08 1008.94 1008.76 1008.52 1008.21 1007.83
1014.43 1014.33 1014.15 1013.93 1013.69 1013.47 1013.30 1013.17 1013.10 1013.07 1013.06 1013.04 1012.99 1012.90 1012.77 1012.59 1012.38 1012.16 1011.94 1011.75 1011.60 1011.49 1011.40 1011.34 1011.27 1011.19 1011.08 1010.92 1010.74 1010.53 1010.30 1010.08 1009.88 1009.70 1009.54 1009.41 1009.27 1009.13 1008.96 1008.74 1008.46 1008.12 1007.71
1014.08 1013.98 1013.82 1013.63 1013.42 1013.25 1013.11 1013.02 1012.97 1012.95 1012.93 1012.91 1012.85 1012.76 1012.62 1012.45 1012.25 1012.06 1011.89 1011.74 1011.64 1011.56 1011.52 1011.49 1011.44 1011.38 1011.28 1011.14 1010.96 1010.76 1010.54 1010.33 1010.13 1009.95 1009.78 1009.62 1009.45 1009.26 1009.03 1008.75 1008.41 1008.01 1007.55
1013.60 1013.53 1013.39 1013.24 1013.08 1012.94 1012.84 1012.78 1012.75 1012.74 1012.72 1012.69 1012.64 1012.54 1012.42 1012.28 1012.13 1012.00 1011.88 1011.81 1011.76 1011.75 1011.75 1011.76 1011.74 1011.69 1011.61 1011.47 1011.31 1011.11 1010.91 1010.70 1010.50 1010.32 1010.14 1009.95 1009.74 1009.49 1009.18 1008.82 1008.40 1007.92 1007.40
1013.02 1012.97 1012.88 1012.77 1012.66 1012.56 1012.50 1012.46 1012.44 1012.43 1012.41 1012.38 1012.33 1012.26 1012.17 1012.08 1012.00 1011.94 1011.91 1011.92 1011.96 1012.02 1012.08 1012.13 1012.14 1012.11 1012.04 1011.91 1011.75 1011.57 1011.37 1011.17 1010.98 1010.79 1010.59 1010.37 1010.12 1009.81 1009.43 1008.98 1008.47 1007.90 1007.31
1012.37 1012.35 1012.30 1012.24 1012.18 1012.12 1012.08 1012.06 1012.05 1012.03 1012.01 1011.99 1011.95 1011.90 1011.86 1011.84 1011.84 1011.88 1011.95 1012.06 1012.19 1012.33 1012.45 1012.54 1012.59 1012.58 1012.52 1012.41 1012.25 1012.08 1011.89 1011.70 1011.51 1011.32 1011.11 1010.87 1010.57 1010.20 1009.76 1009.23 1008.64 1007.99 1007.32
1011.70 1011.72 1011.72 1011.70 1011.67 1011.65 1011.63 1011.62 1011.61 1011.59 1011.57 1011.54 1011.52 1011.51 1011.53 1011.58 1011.66 1011.80 1011.97 1012.18 1012.40 1012.62 1012.80 1012.94 1013.03 1013.04 1013.00 1012.89 1012.75 1012.59 1012.42 1012.24 1012.06 1011.88 1011.66 1011.40 1011.07 1010.66 1010.16 1009.58 1008.91 1008.19 1007.45
1011.08 1011.13 1011.16 1011.18 1011.19 1011.19 1011.19 1011.18 1011.17 1011.15 1011.12 1011.10 1011.10 1011.13 1011.19 1011.31 1011.48 1011.70 1011.97 1012.26 1012.56 1012.85 1013.09 1013.28 1013.39 1013.43 1013.41 1013.32 1013.20 1013.05 1012.89 1012.73 1012.57 1012.39 1012.19 1011.92 1011.58 1011.15 1010.62 1009.99 1009.27 1008.50 1007.69
1010.53 1010.61 1010.68 1010.73 1010.76 1010.79 1010.80 1010.80 1010.78 1010.76 1010.74 1010.73 1010.74 1010.79 1010.90 1011.07 1011.30 1011.59 1011.93 1012.29 1012.65 1012.99 1013.28 1013.50 1013.64 1013.70 1013.69 1013.63 1013.52 1013.39 1013.26 1013.12 1012.98 1012.83 1012.63 1012.38 1012.04 1011.61 1011.07 1010.42 1009.69 1008.88 1008.03
1010.09 1010.20 1010.30 1010.38 1010.44 1010.49 1010.51 1010.52 1010.51 1010.49 1010.47 1010.47 1010.49 1010.57 1010.70 1010.90 1011.17 1011.50 1011.88 1012.27 1012.66 1013.03 1013.33 1013.57 1013.72 1013.80 1013.81 1013.76 1013.68 1013.57 1013.46 1013.35 1013.24 1013.11 1012.94 1012.71 1012.40 1011.98 1011.46 1010.82 1010.09 1009.28 1008.41
1009.79 1009.92 1010.04 1010.15 1010.24 1010.31 1010.36 1010.38 1010.39 1010.38 1010.37 1010.37 1010.41 1010.50 1010.64 1010.85 1011.12 1011.46 1011.83 1012.22 1012.61 1012.96 1013.26 1013.49 1013.64 1013.72 1013.73 1013.69 1013.62 1013.54 1013.45 1013.37 1013.28 1013.18 1013.04 1012.85 1012.57 1012.20 1011.71 1011.11 1010.41 1009.61 1008.76
1009.63 1009.79 1009.94 1010.08 1010.20 1010.30 1010.38 1010.43 1010.45 1010.47 1010.47 1010.49 1010.53 1010.62 1010.75 1010.95 1011.20 1011.50 1011.83 1012.18 1012.52 1012.83 1013.08 1013.27 1013.40 1013.45 1013.45 1013.41 1013.35 1013.28 1013.21 1013.14 1013.08 1013.01 1012.90 1012.75 1012.52 1012.20 1011.76 1011.22 1010.57 1009.83 1009.01
1009.63 1009.82 1010.00 1010.17 1010.33 1010.46 1010.58 1010.66 1010.72 1010.76 1010.79 1010.82 1010.87 1010.94 1011.05 1011.21 1011.41 1011.64 1011.90 1012.17 1012.43 1012.65 1012.84 1012.96 1013.03 1013.05 1013.02 1012.96 1012.89 1012.81 1012.75 1012.69 1012.65 1012.60 1012.52 1012.41 1012.23 1011.96 1011.60 1011.13 1010.55 1009.88 1009.12
1009.81 1010.02 1010.23 1010.44 1010.64 1010.81 1010.97 1011.09 1011.19 1011.26 1011.32 1011.36 1011.40 1011.46 1011.53 1011.63 1011.75 1011.90 1012.06 1012.22 1012.36 1012.48 1012.57 1012.60 1012.60 1012.55 1012.48 1012.39 1012.29 1012.20 1012.13 1012.07 1012.03 1012.00 1011.95 1011.86 1011.73 1011.52 1011.23 1010.84 1010.35 1009.76 1009.09
1010.18 1010.42 1010.66 1010.90 1011.13 1011.34 1011.53 1011.70 1011.83 1011.93 1012.00 1012.05 1012.09 1012.12 1012.14 1012.17 1012.21 1012.25 1012.29 1012.33 1012.34 1012.34 1012.31 1012.24 1012.15 1012.03 1011.90 1011.76 1011.63 1011.51 1011.42 1011.36 1011.31 1011.28 1011.24 1011.19 1011.09 1010.94 1010.71 1010.40 1010.01 1009.51 1008.93
Thickness
5778 5775 5772 5770 5768 5766 5763 5762 5760 5758 5757 5755 5754 5753 5751 5749 5748 5745 5743 5741 5738 5736 5734 5733 5732 5731 5729 5728 5726 5724 5723 5721 5718 5722 5723 5725 5725 5725 5725 5724 5723 5722 5722
5778 5774 5771 5769 5767 5765 5763 5761 5759 5756 5754 5752 5751 5749 5747 5746 5744 5742 5740 5739 5736 5734 5733 5731 5729 5729 5726 5725 5722 5721 5720 5719 5717 5716 5718 5719 5719 5720 5719 5719 5719 5718 5717
5775 5772 5769 5767 5765 5763 5761 5760 5757 5754 5751 5749 5747 5745 5744 5742 5741 5739 5738 5736 5734 5733 5731 5729 5727 5725 5722 5721 5720 5718 5717 5717 5715 5713 5713 5713 5714 5714 5713 5713 5713 5712 5712
5772 5769 5766 5765 5762 5760 5758 5756 5753 5750 5748 5746 5744 5742 5740 5738 5737 5736 5734 5733 5731 5729 5728 5726 5724 5722 5720 5718 5717 5715 5714 5712 5711 5709 5708 5707 5707 5707 5705 5705 5705 5705 5705
5768 5765 5764 5762 5759 5756 5753 5751 5748 5745 5744 5742 5739 5737 5736 5734 5733 5732 5730 5728 5727 5725 5724 5722 5721 5719 5718 5716 5714 5712 5710 5707 5705 5703 5702 5701 5700 5699 5698 5698 5697 5698 5698
5762 5760 5758 5756 5753 5750 5748 5746 5744 5741 5738 5736 5734 5732 5731 5731 5730 5728 5726 5724 5722 5720 5718 5717 5716 5715 5713 5711 5710 5708 5706 5703 5700 5698 5697 5695 5694 5693 5693 5691 5690 5689 5690
5754 5753 5751 5748 5746 5745 5743 5739 5737 5735 5732 5729 5729 5727 5726 5725 5725 5723 5721 5719 5717 5715 5713 5712 5711 5710 5707 5705 5704 5702 5700 5698 5697 5695 5692 5690 5689 5689 5686 5684 5683 5682 5682
5745 5744 5742 5741 5739 5738 5734 5733 5731 5729 5725 5723 5723 5722 5721 5720 5719 5717 5714 5712 5710 5709 5708 5707 5705 5703 5702 5699 5696 5694 5692 5691 5691 5689 5687 5686 5685 5683 5681 5679 5677 5676 5675
5735 5734 5734 5733 5730 5729 5727 5726 5724 5722 5718 5717 5716 5716 5715 5714 5713 5711 5708 5706 5704 5703 5702 5700 5699 5697 5696 5693 5690 5686 5684 5683 5683 5681 5680 5679 5677 5676 5674 5672 5670 5668 5668
5726 5728 5727 5725 5722 5721 5720 5719 5717 5715 5714 5712 5710 5709 5709 5707 5707 5705 5702 5699 5696 5695 5693 5692 5691 5690 5688 5685 5683 5680 5677 5675 5673 5673 5672 5671 5669 5668 5667 5665 5664 5661 5660
5719 5719 5717 5716 5715 5714 5712 5711 5709 5708 5706 5703 5702 5702 5701 5700 5699 5696 5694 5692 5690 5687 5685 5684 5683 5681 5679 5677 5675 5673 5671 5668 5665 5664 5663 5662 5661 5660 5659 5657 5656 5654 5652
5708 5707 5706 5707 5706 5705 5702 5702 5700 5699 5696 5694 5692 5691 5691 5691 5690 5688 5686 5684 5682 5680 5678 5677 5675 5673 5670 5668 5666 5664 5662 5659 5657 5656 5654 5654 5653 5652 5651 5649 5648 5646 5645
5698 5696 5696 5697 5695 5695 5693 5692 5690 5688 5686 5685 5683 5682 5682 5681 5681 5679 5677 5675 5674 5672 5671 5669 5666 5664 5661 5659 5657 5655 5653 5651 5648 5647 5646 5646 5645 5644 5642 5641 5640 5638 5637
5687 5686 5685 5685 5685 5684 5682 5682 5680 5678 5677 5676 5675 5674 5673 5672 5671 5670 5668 5666 5664 5662 5660 5658 5656 5654 5652 5650 5649 5646 5644 5642 5640 5639 5638 5637 5636 5635 5634 5633 5631 5630 5628
5676 5675 5674 5674 5673 5673 5672 5671 5670 5671 5671 5669 5669 5667 5664 5663 5663 5661 5659 5657 5655 5652 5649 5647 5645 5644 5642 5641 5639 5637 5635 5633 5632 5631 5629 5628 5627 5626 5626 5624 5623 5621 5619
5665 5665 5664 5663 5662 5661 5660 5659 5659 5660 5660 5660 5660 5658 5657 5656 5654 5651 5650 5648 5644 5642 5639 5638 5636 5635 5633 5632 5630 5628 5626 5624 5623 5623 5621 5619 5619 5618 5617 5615 5614 5612 5611
5656 5655 5654 5653 5652 5651 5650 5649 5648 5648 5648 5649 5648 5647 5646 5645 5643 5641 5639 5637 5634 5632 5630 5629 5627 5625 5625 5623 5621 5620 5618 5616 5615 5614 5612 5611 5610 5610 5609 5607 5606 5604 5603
5646 5645 5645 5644 5644 5643 5641 5640 5640 5639 5638 5637 5636 5635 5634 5633 5631 5630 5629 5627 5624 5622 5621 5620 5618 5617 5616 5614 5613 5612 5610 5608 5606 5605 5604 5603 5602 5602 5601 5600 5598 5597 5596
5636 5635 5635 5634 5633 5632 5633 5633 5631 5630 5628 5627 5625 5624 5623 5621 5619 5619 5618 5618 5616 5614 5612 5610 5610 5608 5607 5605 5604 5603 5601 5600 5599 5597 5596 5595 5594 5593 5593 5592 5591 5588 5587
5625 5625 5625 5625 5624 5624 5624 5623 5622 5621 5619 5617 5616 5615 5613 5612 5610 5608 5607 5606 5606 5605 5603 5602 5600 5598 5597 5596 5595 5594 5593 5592 5591 5589 5588 5587 5586 5585 5585 5584 5583 5581 5580
5616 5616 5616 5616 5616 5615 5615 5614 5613 5612 5610 5608 5607 5606 5603 5603 5601 5599 5597 5596 5595 5594 5594 5592 5591 5590 5589 5587 5586 5585 5584 5583 5582 5581 5580 5579 5578 5577 5577 5576 5575 5574 5573
5606 5606 5606 5606 5605 5605 5604 5603 5602 5602 5601 5599 5598 5595 5592 5592 5591 5589 5587 5586 5586 5585 5584 5583 5582 5580 5580 5579 5578 5577 5576 5575 5574 5573 5572 5571 5570 5570 5569 5567 5566 5566 5565
5596 5596 5596 5596 5595 5594 5594 5593 5593 5593 5592 5590 5588 5585 5583 5582 5581 5579 5577 5577 5577 5576 5575 5574 5572 5571 5570 5569 5569 5568 5567 5567 5567 5566 5564 5564 5563 5563 5562 5561 5559 5558 5558
5586 5586 5586 5586 5586 5585 5584 5584 5584 5583 5582 5581 5579 5577 5575 5574 5572 5570 5569 5568 5567 5567 5566 5565 5564 5563 5562 5561 5560 5559 5559 5559 5558 5557 5557 5557 5556 5556 5555 5554 5553 5552 5551
5578 5577 5578 5577 5577 5577 5576 5574 5574 5573 5572 5571 5570 5568 5566 5565 5564 5562 5560 5559 5558 5558 5557 5556 5555 5555 5554 5553 5552 5552 5552 5551 5550 5549 5549 5549 5550 5549 5548 5547 5546 5545 5545
5570 5569 5569 5568 5568 5567 5565 5565 5564 5564 5563 5562 5561 5559 5558 5556 5554 5553 5552 5551 5550 5549 5548 5547 5547 5546 5546 5545 5545 5545 5544 5544 5543 5542 5541 5542 5542 5542 5542 5541 5540 5540 5539